www.pogodaiklimat.ru

Погода и климат >> Архив погоды >> Россия >> Свердловская область >> Таборы


ПОГОДА в Таборах

  • Прогноз погоды в Таборах
  • Монитор погоды в Таборах
  • Климат города

АРХИВ ПОГОДЫ в Таборах

Время (UTC), дата Ветер
(напр.,м/с)
 
Видим.   Явления Облачность Т
(С)
Тd
(С)
f
(%)
Тe
(С)
Тes
(С)
Комфортность P
(гПа)
Po
(гПа)
Тmin
(С)
Tmax
(С)
R
(мм)
R24
(мм)
S
(см)
03 10.12 СЗ 3 8000 м слабый снег 10/3 300 м
[Frnb As trans]
-10.8 -12.9 84 -17 -17 1012.9 1004.8 -10.9 0.0 9
06 10.12 СЗ 2 8000 м слабый снег 10/0
[As op]
-10.8 -13.0 84 -15 -15 1015.1 1007.0
09 10.12 СЗ 2 5000 м слабый снег 10/0
[As op]
-10.6 -12.6 85 -15 -15 1016.5 1008.4
12 10.12 СЗ 2 9000 м слабый снег 10/0
[As op]
-10.6 -12.6 85 -15 -15 1018.6 1010.5
15 10.12 СЗ 3 50 км {снег} 10/0
[Cs]
-11.5 -13.8 83 -17 -17 1020.2 1012.0 -10.4 2
18 10.12 СЗ 4 50 км {снег} 10/6 330 м
[St Ac und]
-11.3 -13.6 83 -18 -18 1021.3 1013.1
21 10.12 С 4 50 км 10/10 360 м
[St]
-11.8 -14.7 79 -19 -19 1022.9 1014.7
00 11.12 С 3 50 км 10/10 360 м
[St]
-13.1 -15.7 81 -19 -19 1024.5 1016.3
03 11.12 С 3 20 км слабый снег 10/4 300 м
[Frnb As op]
-12.7 -15.4 80 -19 -19 1026.1 1017.8 -13.5 0.0 10
06 11.12 С 4 20 км слабый снег 10/0
[Ac As]
-12.2 -15.0 80 -19 -19 1027.8 1019.5
09 11.12 С 3 50 км {снег} 10/0
[Ac und]
-12.6 -15.6 78 -19 -19 1029.4 1021.1
12 11.12 СЗ 2 50 км {снег} 10/0
[Ac und]
-12.4 -15.2 80 -17 -17 1031.0 1022.7
15 11.12 С 2 50 км 10/0
[Ac und]
-12.1 -14.6 82 -17 -17 1032.3 1024.0 -11.9 0.0
18 11.12 СЗ 1 50 км 10/0
[Ac und]
-11.8 -14.2 82 -14 -14 1033.4 1025.1
21 11.12 СЗ 1 10 км слабый снег 10/0
[Ac As]
-11.8 -14.1 83 -14 -14 1033.8 1025.5
00 12.12 СЗ 1 9000 м слабый снег 10/0
[As op]
-11.8 -14.0 84 -14 -14 1034.5 1026.2
03 12.12 ЮЗ 1 15 км слабый снег 10/0
[As trans]
-13.1 -15.0 86 -15 -15 1035.4 1027.1 -13.1 0.2 11
06 12.12 ЮЗ 1 50 км {снег} 8/0
[Ac trans Ci fib]
-13.4 -15.4 85 -16 -16 1036.3 1028.0 -14.2
09 12.12 ЮВ 1 20 км слабый снег 10/0
[Ac As]
-11.4 -13.9 82 -14 -14 1036.5 1028.2
12 12.12 Ю 1 50 км {снег} 8/0
[Ci fib]
-14.5 -16.0 88 -17 -17 1037.2 1028.8
15 12.12 Ю 2 50 км 9/0
[Ac trans]
-15.2 -17.1 85 -20 -20 1037.9 1029.5 -10.9 0.2
18 12.12 Ю 1 50 км 8/0
[Ci fib]
-17.7 -19.8 84 -21 -21 1038.9 1030.3
21 12.12 ЮВ 1 50 км 4/0
[Ci fib]
-18.4 -20.6 83 -21 -21 1038.8 1030.2
00 13.12 ЮВ 1 50 км 4/0
[Ci fib]
-20.8 -23.1 82 -24 -24 1039.2 1030.6
03 13.12 ЮВ 1 50 км 3/0
[Ci fib]
-21.0 -23.5 80 -24 -24 1039.3 1030.7 -21.5 11
06 13.12 ЮВ 1 5000 м дымка 3/0
[Ci fib]
-17.5 -19.7 83 -20 -20 1039.6 1031.1
09 13.12 ЮВ 1 8000 м дымка ясно -13.9 -16.0 84 -16 -16 1039.3 1030.9
12 13.12 Ю 2 9000 м дымка ясно -15.1 -17.1 85 -20 -20 1039.4 1031.0
15 13.12 Ю 2 29 км ясно -15.5 -17.5 85 -21 -21 1038.8 1030.4 -13.3
18 13.12 Ю 3 50 км ясно -15.6 -17.7 84 -22 -22 1038.0 1029.6
21 13.12 Ю 3 50 км 3/0
[Ci fib]
-15.3 -17.6 83 -22 -22 1037.0 1028.6
00 14.12 Ю 3 50 км 8/0
[Ci fib]
-14.8 -17.1 83 -21 -21 1036.4 1028.0
03 14.12 Ю 4 50 км 10/0
[Ci]
-13.5 -16.0 81 -21 -21 1035.2 1026.8 -15.7 11
06 14.12 Ю 5 50 км 10/0
[Ac und]
-12.2 -14.6 82 -20 -20 1034.7 1026.4
09 14.12 Ю 4
{10}
50 км 10/0
[Ac und]
-9.7 -12.7 79 -17 -17 1033.6 1025.4
12 14.12 Ю 4 50 км 10/0
[Ac und]
-8.5 -12.1 75 -15 -15 1033.4 1025.2
15 14.12 ЮЗ 4
{10}
50 км 10/0
[Ac und]
-7.1 -11.3 72 -14 -14 1033.2 1025.1 -7.1
18 14.12 ЮЗ 4 50 км 9/0
[Ac trans]
-6.9 -10.8 74 -13 -13 1032.9 1024.7
21 14.12 Ю 4
{10}
50 км 10/0
[Ac und]
-6.2 -9.8 76 -13 -13 1032.6 1024.5
00 15.12 ЮЗ 5 50 км 10/0
[Ac und]
-5.3 -8.1 81 -12 -12 1032.4 1024.3
03 15.12 ЮЗ 5 50 км 8/0
[Ac trans]
-4.4 -7.0 82 -11 -11 1033.2 1025.1 -7.1 11
06 15.12 ЮЗ 5 50 км 10/0
[Ac und]
-2.1 -5.2 79 -9 -9 1034.0 1026.0
09 15.12 Ю 3 50 км 10/0
[Ac As Cs]
-3.1 -7.4 72 -8 -8 1034.3 1026.3
12 15.12 Ю 4 50 км 10/0
[Ac trans Cs]
-5.9 -11.1 67 -12 -12 1034.8 1026.7
15 15.12 ЮЗ 5 50 км 10/0
[Ac As Cs]
-8.3 -13.3 67 -16 -16 1035.1 1026.9 -2.1
18 15.12 ЮЗ 4 50 км 10/0
[Ci fib]
-8.6 -14.0 65 -15 -15 1034.9 1026.7
21 15.12 ЮЗ 6 50 км 8/0
[Ci fib]
-8.3 -13.5 66 -16 -16 1034.7 1026.5
00 16.12 ЮЗ 5 50 км 10/0
[Cs]
-7.4 -12.7 66 -15 -15 1034.9 1026.7
03 16.12 ЮЗ 3 50 км 10/0
[Ac lent Ci fib]
-8.1 -13.2 67 -14 -14 1035.6 1027.4 -8.7 10
06 16.12 ЮЗ 4 50 км 8/0
[Ci fib]
-7.1 -13.1 62 -13 -13 1035.8 1027.6
09 16.12 ЮЗ 3 50 км 8/0
[Ci fib]
-5.8 -13.1 56 -11 -11 1036.1 1028.0
12 16.12 ЮЗ 4 50 км 8/0
[Ci fib]
-6.5 -13.3 58 -13 -13 1037.1 1029.0
15 16.12 ЮЗ 4 50 км 8/0
[Ci fib]
-7.2 -13.8 59 -14 -14 1038.0 1029.8 -5.7
18 16.12 ЮЗ 2 50 км 5/0
[Ci fib]
-7.6 -14.6 57 -12 -12 1038.1 1030.0
21 16.12 Ю 2 50 км 4/0
[Ci fib]
-9.8 -15.5 63 -14 -14 1038.0 1029.7
00 17.12 ЮЗ 2 50 км 8/0
[Ci fib]
-10.1 -16.5 59 -14 -14 1038.4 1030.2

 

Местоположение метеостанции Таборы (Свердловская область, Россия): широта 58.53 долгота 64.50 высота над уровнем моря 63 м.

В архиве по умолчанию представлена погода в Таборах за последнюю неделю. Архивные данные за месяц целиком и за предыдущие месяцы, начиная с января 2011 года, Вы можете получить, выбрав интересующий диапазон дат из раскрывающегося списка и нажав кнопку "Ввод!".

Внимание! Время в таблицах - всемирное. Для получения местного времени необходимо прибавить поправку, которая в Таборах равна 5 ч.

Смотрите также архив погоды в соседних городах и на ближайших метеорологических станциях:

Погода в Тавде (Свердловская область, Россия) (68 км)
Погода в Туринске (Свердловская область, Россия) (72 км)
Погода в Куминской (Ханты-Мансийский АО, Россия) (94 км)
Погода в Ирбите (Свердловская область, Россия) (135 км)
Погода в Леушах (Ханты-Мансийский АО, Россия) (141 км)
Погода в Гари (Свердловская область, Россия) (160 км)
Погода в Тугулыме (Свердловская область, Россия) (163 км)
Погода в Тюмени (Тюменская область, Россия) (166 км)
Погода в Алапаевске (Свердловская область, Россия) (180 км)
Погода в Ярково (Тюменская область, Россия) (196 км)

Пояснения к столбцам:

Ветер - указаны скорость ветра в м/с - средняя за 10 мин, порывы в срок и между сроками (в фигурных скобках) и направление, откуда дует ветер: С - северный, СВ - северо-восточный, В - восточный, ЮВ - юго-восточный, Ю - южный, ЮЗ - юго-западный, З - западный, СЗ - северо-западный.
Видимость - горизонтальная дальность видимости в метрах или километрах. При видимости от 1 до 10 км при отсутствии осадков обычно наблюдается дымка, при ухудшении видимости до 1 км и менее - туман. В сухую погоду видимость может ухудшаться дымом, пылью или мглою.
Явления - указаны атмосферные явления, наблюдавшиеся в срок или в последний час перед сроком; фигурными скобками обозначены явления, наблюдавшиеся между сроками (за 1-3 часа до срока); квадратными скобками обозначены град или гололедные отложения с указанием их диаметра в мм.
Облачность - указаны через наклонную черту общая и нижняя облачность в баллах и высота нижней границы облаков в метрах; квадратными скобками обозначены формы облаков: Ci - перистые, Cs - перисто-слоистые, Cc - перисто-кучевые, Ac - высококучевые, As - высокослоистые, Sc - слоисто-кучевые, Ns - слоисто-дождевые, Cu - кучевые, Cb - кучево-дождевые. Подробнее классификацию облаков см. в Атласе облаков (PDF).
T - Температура воздуха - температура, измеренная на высоте 2 м над землей.
Td - Температура точки росы - температура, при понижении до которой содержащийся в воздухе водяной пар достигнет насыщения.
f - Относительная влажность воздуха - влажноcть воздуха, измеренная на высоте 2 м над землей.
Te - Эффективная температура - температура, которую ощущает одетый по сезону человек в тени. Характеристика душности погоды. При расчете учитывается влияние влажности воздуха и скорости ветра на теплоощущения человека.
Tes - Эффективная температура на солнце - температура, которую ощущает человек, с поправкой на солнечный нагрев. Характеристика знойности погоды. Зависит от высоты солнца над горизонтом, облачности и скорости ветра. Ночью, в пасмурную погоду, а также при ветре 12 м/с и более поправка равна нулю.
P - Атмосферное давление - приведенное к уровню моря атмосферное давление.
Po - Атмосферное давление - измеренное на уровне метеостанции атмосферное давление.
Tmin - Минимальная температура - минимум температуры воздуха на высоте 2 м над землей.
Tmax - Максимальная температура - максимум температуры воздуха на высоте 2 м над землей.
R - Количество осадков - Количество выпавших осадков за период времени, мм. При наведении курсора мыши на число - период времени, за который выпало указанное количество осадков.
R24 - Количество осадков - Количество выпавших осадков за 24 часа, мм.
S - Снежный покров - Высота снежного покрова, см. При наведении курсора мыши на число - состояние снежного покрова и степень покрытия местности в баллах.